ECMWFFLT1_850_spd_033.txt.gz
Wind_Speed
13 13 13 11 11 10 7 8 7 7 9 8 7 6 4 3 4 5 5 5 5 3 1 2 4 5 6 8 7 6 7 8 9 9 10 11 12 12 12 11 8 6 10 15 17 20 21 20 17 16 17 16 14 14 13 12 10 8 5 3 4 7 8
14 12 12 12 11 10 8 7 6 6 6 6 5 5 4 5 6 8 8 5 4 4 3 2 2 5 7 8 7 8 8 7 8 9 10 11 12 13 14 13 10 10 13 16 17 19 22 24 22 20 19 17 15 14 12 12 10 6 3 3 5 7 8
15 13 13 12 11 10 10 9 7 6 6 7 7 7 7 6 6 9 11 8 4 5 5 2 4 6 6 7 7 8 8 7 7 8 9 11 11 13 15 14 13 13 17 19 19 20 22 24 24 23 19 17 17 15 12 10 8 5 3 4 5 5 5
15 14 14 13 12 12 11 9 8 8 8 8 9 9 9 8 7 8 10 11 8 6 5 4 5 5 4 5 5 7 8 8 8 8 9 10 10 12 13 14 13 14 18 20 20 21 22 23 24 21 17 15 16 17 14 10 7 4 2 2 3 3 3
15 15 15 14 14 13 11 10 8 6 6 7 8 10 9 7 7 7 9 11 11 8 6 5 5 5 6 6 6 7 8 8 8 9 9 9 9 10 11 12 12 13 17 19 20 20 18 19 21 19 18 18 19 19 16 12 7 2 2 3 4 5 5
16 15 16 15 15 13 11 9 7 5 6 6 5 7 7 6 7 8 8 9 10 9 8 6 4 5 7 7 6 7 7 7 8 8 8 8 8 8 9 11 12 14 17 19 20 18 15 17 20 20 20 19 19 19 16 13 11 6 2 3 6 7 7
15 15 16 16 15 12 10 8 8 7 7 6 4 4 6 8 9 8 9 8 9 10 9 6 4 4 7 7 6 7 8 8 8 9 9 10 12 11 11 11 13 15 17 19 20 18 17 20 20 20 21 19 17 18 17 14 12 9 5 1 6 7 7
15 15 16 16 13 11 10 9 9 9 8 8 6 4 7 11 11 9 8 6 9 12 11 8 6 5 6 7 7 9 11 12 12 13 13 15 18 18 17 15 15 15 16 19 20 18 19 21 19 18 22 23 21 20 19 17 13 8 6 3 2 5 5
16 15 17 17 14 12 12 12 12 11 10 9 7 5 7 12 13 11 7 6 12 15 12 10 8 6 7 9 11 12 13 15 16 18 18 17 17 18 19 19 18 17 16 18 19 19 19 20 18 18 19 22 26 24 20 18 15 10 6 4 2 2 4
16 16 18 19 16 14 14 14 13 12 11 9 7 6 7 11 13 11 7 9 14 15 12 10 8 8 10 12 12 13 14 16 18 20 20 18 16 16 18 18 19 19 17 16 17 16 16 15 18 21 16 16 25 27 23 19 15 12 9 4 1 3 4
16 17 19 19 17 15 14 14 12 11 10 8 7 6 8 11 11 9 8 11 14 15 12 10 8 10 12 13 12 12 13 15 18 21 20 19 19 18 17 17 19 19 17 17 17 16 15 14 16 20 16 14 22 26 24 20 16 13 11 6 2 3 4
18 18 19 18 17 15 13 12 11 10 8 6 6 7 8 8 9 9 9 10 11 13 13 11 9 10 12 12 12 11 12 16 19 20 19 19 19 19 19 18 19 19 18 20 20 17 15 15 15 14 12 16 23 24 19 17 16 14 10 7 4 1 2
20 20 19 17 16 14 11 10 10 9 7 6 8 8 7 7 8 9 9 9 9 11 12 12 10 10 12 13 12 11 12 16 20 20 18 17 17 17 18 18 18 18 19 20 20 17 14 12 11 10 10 15 20 20 17 14 15 16 11 6 4 2 1
21 20 19 17 15 12 10 10 9 8 6 7 9 8 7 7 7 7 8 8 9 11 12 12 11 11 12 12 11 11 12 15 18 18 17 17 17 17 17 18 19 18 17 17 17 16 13 9 8 8 10 14 15 14 13 11 12 15 13 8 6 5 3
22 20 18 17 15 12 10 9 9 7 7 8 9 8 7 6 6 8 8 8 9 11 12 14 15 13 13 14 13 14 14 16 18 17 17 19 21 20 19 19 20 19 18 16 15 14 12 10 9 9 10 12 13 12 10 8 9 11 11 9 9 8 5
22 20 17 17 15 12 10 8 8 8 8 9 10 9 7 6 7 8 7 6 9 12 14 15 15 14 16 17 15 15 16 18 18 17 17 20 22 21 20 21 21 20 18 17 16 13 13 12 11 11 12 10 10 10 8 7 7 8 8 8 10 10 5
22 19 17 16 15 12 10 8 9 9 9 10 12 11 7 7 8 9 7 6 8 11 13 14 13 15 18 17 16 17 19 19 18 17 17 19 21 20 19 20 20 19 17 16 15 12 13 14 11 9 10 10 8 8 7 8 8 7 7 8 8 7 4
22 19 17 16 15 12 9 8 10 10 9 11 13 12 8 8 10 10 7 6 8 9 10 10 11 16 20 18 17 18 20 20 19 18 17 18 20 19 17 16 17 16 15 15 15 13 13 14 11 9 8 8 8 8 8 9 8 7 7 8 7 6 4
21 18 16 15 14 11 8 8 10 11 10 10 13 12 9 9 11 10 8 7 7 6 7 7 9 15 20 19 18 18 19 21 19 17 17 17 18 19 16 15 14 13 14 14 15 14 13 12 10 9 7 5 6 9 10 11 9 7 8 9 7 5 5
18 17 17 17 15 12 9 8 9 11 11 11 13 11 10 11 11 9 8 8 8 5 5 7 8 11 15 17 17 17 19 20 19 16 16 17 17 17 16 15 13 12 13 14 14 14 14 13 12 10 8 7 7 8 10 12 12 9 8 9 7 6 6
16 16 16 16 15 13 12 10 8 9 10 10 12 12 11 11 11 10 8 8 9 7 5 7 9 9 11 13 14 15 17 19 20 17 16 15 15 14 13 12 12 12 13 13 13 13 14 15 14 13 11 10 9 10 11 13 12 10 9 10 8 7 8
14 13 13 13 14 14 13 12 11 11 10 9 9 10 11 11 12 13 11 9 10 10 8 8 10 10 10 11 12 13 14 16 18 18 17 16 14 13 13 12 12 12 12 13 13 12 14 15 15 15 13 12 13 13 13 14 13 11 11 11 10 7 7
11 11 11 10 11 12 12 13 13 14 13 10 9 8 9 10 11 13 14 13 12 12 11 11 11 11 11 11 11 13 13 14 15 16 16 16 16 15 15 14 14 14 13 13 13 13 14 15 16 15 15 14 15 16 16 16 13 13 14 14 12 10 8
8 7 6 7 8 9 9 10 12 14 15 13 11 11 10 11 11 12 15 16 15 14 14 15 14 14 13 13 13 13 14 14 14 15 15 16 16 16 16 16 16 16 16 15 14 14 15 15 15 15 14 14 14 17 18 18 15 14 15 15 14 14 12
6 4 3 3 5 5 5 6 9 12 15 15 14 14 13 13 14 14 15 17 17 17 17 18 18 17 16 16 16 15 16 15 15 15 16 17 17 18 18 18 18 17 17 16 15 14 14 14 15 14 14 14 15 16 18 18 16 14 14 14 14 15 16
10 7 5 4 3 3 2 3 6 9 13 15 16 16 16 16 16 17 17 18 18 19 20 20 20 20 19 19 19 19 18 17 16 17 19 20 19 20 20 20 19 19 19 19 19 17 16 16 16 16 16 17 17 17 18 18 17 16 15 14 15 16 17
14 12 10 8 6 5 3 2 2 4 7 10 13 15 17 18 18 19 20 20 21 22 22 22 22 22 22 22 22 22 21 20 20 21 22 22 21 21 23 22 22 22 22 22 22 20 20 19 19 19 20 20 19 19 19 19 19 18 17 16 16 16 18
12 12 10 8 7 6 4 4 5 5 5 5 7 10 13 16 18 19 21 22 23 23 24 24 24 24 25 25 25 26 25 24 24 25 26 25 25 25 25 24 24 24 25 26 25 23 24 24 22 22 23 22 20 20 20 20 20 20 19 17 17 17 19
6 6 6 6 6 5 4 3 3 4 5 6 7 8 9 11 13 15 17 19 21 22 23 23 24 25 26 26 27 28 28 27 27 28 29 29 28 28 27 26 26 25 26 27 27 26 25 24 24 25 24 22 21 21 21 20 19 19 18 17 17 17 18
2 1 1 2 4 3 2 2 2 0 2 3 6 7 9 11 11 12 14 16 17 19 20 21 22 23 25 26 27 28 28 29 29 31 32 32 31 30 30 29 29 27 27 27 26 24 24 24 25 25 23 22 22 21 20 19 18 18 17 17 16 16 16
8 8 7 7 6 7 7 7 8 7 6 6 5 6 8 10 12 14 15 16 16 17 17 18 19 20 21 22 24 26 27 28 29 31 33 34 34 34 33 32 31 29 29 28 25 22 23 26 26 24 23 22 20 19 19 19 18 16 16 15 15 14 14
12 12 13 13 13 13 13 12 13 13 13 13 12 11 11 11 12 15 17 18 18 18 19 18 18 18 19 19 21 24 26 28 30 31 33 34 35 35 35 33 32 31 29 26 23 22 24 26 26 23 22 21 19 19 19 18 15 14 14 13 13 12 12
15 16 17 17 17 18 18 18 18 17 18 18 18 18 17 17 16 16 17 18 18 19 20 20 19 18 18 18 21 24 26 28 30 31 33 35 36 36 35 33 32 29 26 24 23 24 26 27 24 21 21 21 20 19 17 15 13 12 12 11 11 11 12
18 19 20 21 22 23 23 23 23 23 23 23 23 22 21 20 21 21 21 21 22 22 22 22 22 22 20 20 22 24 27 30 31 31 31 33 35 36 35 33 29 26 25 25 24 26 28 27 23 20 20 20 18 17 15 13 12 12 11 10 10 12 13
19 20 21 23 24 26 26 26 26 25 24 24 24 23 23 22 22 23 23 22 23 24 25 24 24 25 24 23 23 24 27 30 31 31 31 32 34 36 35 32 28 27 26 25 26 28 28 25 22 20 19 18 16 15 13 12 12 12 11 12 13 14 14
18 19 20 21 24 25 26 27 26 24 23 22 22 22 22 22 23 24 24 23 23 24 25 26 27 27 26 25 25 25 26 29 31 31 30 32 34 35 34 30 27 25 25 24 25 27 25 22 19 19 19 17 16 14 13 12 12 12 13 13 13 13 13
18 18 18 20 22 23 24 25 26 25 23 22 22 21 20 20 20 22 23 24 24 25 26 27 28 28 27 26 27 27 27 29 30 29 30 32 34 33 30 27 24 22 22 23 25 25 23 20 20 21 21 19 18 17 15 14 14 14 13 13 12 11 12

ECMWFFLT1_850_spd_036.txt.gz
Wind_Speed
17 15 14 13 11 10 8 6 5 4 4 3 3 3 2 2 6 8 8 8 8 7 6 5 6 7 7 8 9 10 10 10 10 10 10 12 14 16 16 16 13 10 12 16 16 17 18 19 17 16 16 15 13 12 9 7 7 8 8 7 6 6 6
15 15 16 14 12 10 8 7 6 5 5 5 5 4 2 3 5 6 8 9 8 6 6 5 6 6 7 9 10 10 10 10 11 11 11 11 12 14 15 15 13 11 14 15 14 16 19 22 21 20 19 18 16 13 9 7 8 8 8 7 7 7 7
17 17 17 15 13 11 9 8 7 6 5 5 5 4 3 3 4 5 5 6 6 6 6 5 4 4 6 8 8 8 8 8 10 11 11 10 11 13 14 14 13 13 16 17 17 18 20 21 23 23 21 20 19 16 11 8 8 7 6 6 4 4 5
19 19 18 16 14 12 11 10 9 7 6 5 5 5 5 4 5 5 5 5 5 5 5 4 3 3 5 7 8 7 8 8 9 10 10 10 11 12 13 14 12 12 14 16 18 21 21 22 24 24 21 19 18 17 14 10 7 6 5 5 4 2 2
19 18 18 17 15 14 13 11 9 8 7 6 6 7 7 6 5 5 6 5 5 4 4 4 4 4 6 7 7 7 8 8 7 8 9 10 10 11 13 14 11 12 13 13 16 20 20 21 24 25 23 20 18 18 16 13 8 4 4 6 8 5 3
18 17 16 16 15 14 12 10 9 8 7 5 5 7 8 7 6 6 7 7 6 6 5 5 5 6 7 7 6 6 7 7 6 7 8 9 9 9 11 13 13 15 16 15 16 19 19 19 22 25 24 21 20 21 18 13 10 6 3 5 9 7 4
16 15 15 15 15 14 11 8 7 6 4 3 3 5 6 8 9 8 8 8 8 7 7 6 5 5 7 6 5 6 6 6 6 7 8 9 9 9 10 12 15 18 20 18 18 20 19 19 22 25 25 22 19 20 18 13 10 7 5 5 7 6 4
14 14 14 15 15 13 9 7 6 5 3 2 2 2 4 8 10 10 9 8 8 8 8 6 4 4 6 6 5 6 7 7 7 8 9 9 9 10 10 12 15 19 20 19 21 21 18 18 20 21 24 25 21 18 16 14 11 5 3 5 6 6 6
14 15 16 16 15 12 8 6 5 5 5 4 3 1 3 7 9 9 9 8 9 10 9 7 5 6 7 7 6 6 7 7 8 9 11 11 11 10 10 12 15 19 19 20 20 18 15 18 19 19 20 21 21 21 18 14 12 8 4 4 4 7 8
15 15 16 17 15 11 8 6 6 7 7 6 5 4 4 7 7 6 8 11 12 10 9 7 5 7 8 8 8 8 8 9 10 13 14 13 12 11 11 12 14 18 20 20 17 15 16 19 20 19 17 13 13 19 19 17 14 9 6 4 3 6 8
15 14 15 17 14 10 8 8 9 9 9 8 7 6 6 8 8 6 8 13 15 12 10 8 6 7 9 10 10 10 11 11 13 15 15 13 13 13 13 13 14 16 19 19 17 16 18 19 18 19 19 14 9 8 11 15 15 10 7 6 5 5 6
16 14 15 16 13 10 8 8 9 9 9 9 8 7 6 8 9 8 10 14 16 14 12 9 7 9 10 11 12 12 13 14 14 14 14 13 13 12 13 14 14 16 19 19 18 17 18 19 18 18 20 18 12 6 4 9 12 10 10 8 6 5 3
17 15 16 15 12 10 8 8 8 9 9 10 9 6 7 9 10 11 12 14 15 13 11 9 10 11 12 12 13 14 16 16 15 14 13 13 12 12 13 14 14 15 17 17 17 17 17 18 17 18 20 21 17 12 9 8 7 8 11 10 7 6 4
16 16 16 15 12 10 8 8 9 9 9 9 8 7 9 9 10 11 12 13 13 12 10 9 11 13 13 12 13 14 17 18 17 15 15 14 13 13 14 14 15 17 17 17 16 15 14 13 13 15 19 22 21 17 15 12 8 7 10 11 8 6 4
17 16 15 14 12 11 9 8 9 8 8 8 7 8 8 9 10 10 10 12 11 11 9 8 12 14 14 13 13 13 17 19 18 17 17 16 16 16 16 16 16 17 16 15 14 12 11 10 10 11 12 19 22 20 18 16 10 7 9 11 9 7 5
18 16 15 13 13 12 10 8 8 8 7 8 8 7 7 8 9 9 10 11 11 10 9 10 12 13 13 13 14 14 17 18 19 18 17 18 19 19 20 19 18 17 15 14 13 12 11 10 10 9 8 13 21 22 19 15 10 8 9 10 10 9 6
17 16 15 15 14 12 10 8 8 8 8 9 9 7 6 7 8 7 7 9 12 11 11 12 12 13 13 13 14 16 17 18 17 16 16 17 19 20 21 21 21 20 18 16 15 14 14 13 11 11 9 13 19 21 17 13 9 8 10 10 10 9 6
15 17 16 14 14 12 10 8 8 8 9 10 9 8 6 5 6 5 4 5 10 12 12 12 12 14 14 14 15 16 18 18 17 16 17 18 19 19 20 21 21 21 20 19 17 16 15 14 12 12 12 14 17 18 16 14 12 10 10 9 9 10 9
17 18 15 14 14 12 10 8 8 9 10 10 10 9 7 6 7 6 3 3 5 9 10 10 12 15 15 14 16 17 18 18 16 17 18 18 18 19 20 20 20 20 19 18 18 17 15 14 14 13 14 14 14 14 14 15 14 12 11 9 9 10 10
17 17 16 16 15 12 10 8 9 9 11 11 12 11 9 8 8 8 6 4 3 4 4 6 12 17 16 14 15 17 18 17 16 16 17 18 18 19 21 21 19 19 18 16 15 16 16 15 15 15 14 14 13 14 14 15 14 13 12 11 11 11 10
17 18 18 17 15 14 13 10 10 11 12 13 13 11 10 9 10 9 7 6 5 4 2 3 11 18 18 15 16 17 18 18 17 16 16 17 19 20 20 20 19 18 17 15 15 15 16 17 17 17 16 14 14 14 15 15 15 15 14 14 14 13 12
18 19 18 16 15 16 15 12 11 13 13 14 14 12 10 10 11 11 10 8 8 8 6 4 6 14 18 17 17 18 18 19 19 18 17 18 20 21 20 20 20 19 18 18 17 17 17 17 18 18 17 16 15 15 16 17 17 17 16 17 17 16 15
18 18 17 15 15 15 15 14 15 17 16 15 14 13 12 13 13 13 12 11 10 11 11 8 6 8 11 14 15 17 19 21 21 20 19 19 20 22 22 20 20 20 20 20 20 20 20 19 19 19 18 18 17 17 17 18 19 19 19 18 19 18 18
13 13 12 12 14 15 15 16 18 19 17 15 14 13 12 14 15 15 14 14 13 13 13 13 11 9 8 9 11 13 16 20 23 22 21 20 20 21 21 21 20 20 20 20 21 21 21 21 21 21 20 19 19 18 18 19 21 22 22 21 21 21 20
9 8 7 9 11 13 14 17 21 21 17 14 13 13 12 12 14 15 16 16 16 14 13 14 15 14 12 11 12 13 14 17 20 23 24 24 23 23 23 23 22 22 21 21 21 21 21 22 23 23 23 22 21 20 20 20 21 23 24 23 23 22 21
12 10 7 6 6 6 8 12 15 16 16 14 12 12 13 13 13 14 15 16 17 16 15 14 15 17 17 16 15 15 16 16 18 20 22 24 24 25 25 25 24 23 23 22 22 21 22 23 24 25 25 24 23 22 22 22 22 23 24 23 23 22 21
14 13 10 8 7 7 7 7 6 7 10 13 12 13 15 15 15 16 16 16 17 18 18 17 16 17 19 20 20 20 20 20 21 22 22 23 24 25 25 26 26 25 25 25 24 24 23 24 24 25 24 24 24 23 23 22 23 24 25 24 23 22 21
15 14 12 10 9 8 7 7 6 6 6 8 9 10 11 13 14 17 19 19 20 20 20 20 19 18 19 21 22 23 23 24 25 26 26 26 26 25 26 27 28 28 28 28 27 26 25 25 25 25 24 23 24 24 24 23 24 25 26 25 24 22 20
11 11 11 10 9 8 8 7 7 7 7 7 7 7 7 7 8 11 14 17 20 22 22 23 23 23 23 23 23 24 25 27 28 29 29 29 29 28 29 30 31 31 31 30 28 28 27 28 28 27 25 24 25 26 26 25 25 27 27 26 25 22 20
6 5 6 6 6 6 6 5 5 6 6 6 7 7 8 8 8 8 9 11 14 17 18 20 22 24 26 27 27 27 27 28 30 30 31 32 31 32 32 33 34 35 34 32 31 30 30 31 32 30 27 28 29 29 29 28 26 28 29 27 25 22 20
5 5 6 7 7 7 7 7 7 7 7 7 8 8 9 10 10 11 11 11 12 13 14 15 16 19 22 25 27 28 29 30 31 31 32 33 33 34 34 34 36 36 35 33 33 33 33 34 36 33 30 31 32 31 31 29 27 29 28 24 22 21 20
7 8 8 9 10 12 12 13 13 12 12 13 13 13 13 14 14 14 14 14 15 15 17 17 16 17 18 19 22 24 25 28 29 30 31 32 33 34 35 36 37 37 36 35 34 34 33 34 38 37 32 31 32 32 32 29 27 28 26 21 19 19 17
11 11 12 13 13 14 16 17 18 18 18 18 19 19 19 20 20 19 19 19 19 19 20 21 20 20 19 20 21 22 24 25 26 28 29 30 31 33 34 36 37 37 39 38 37 36 35 36 39 38 33 32 33 33 31 27 24 24 22 19 18 17 15
13 13 14 15 15 16 17 18 20 21 23 23 24 25 25 25 26 26 25 24 24 23 23 23 24 24 24 24 23 23 25 26 26 26 27 28 29 29 31 32 33 34 37 38 38 38 38 39 40 39 37 36 34 31 27 23 21 20 19 17 17 17 16
16 16 17 17 17 17 18 18 19 20 22 23 24 25 26 27 28 29 30 29 29 28 28 27 27 27 28 28 26 26 27 27 27 28 29 30 30 30 29 29 30 30 32 35 37 38 38 38 40 40 39 35 29 25 24 21 19 19 18 18 18 17 14
17 17 18 19 19 19 19 19 19 19 19 20 21 22 23 24 26 28 29 30 30 30 30 31 30 29 29 30 28 26 26 27 28 29 31 31 31 32 32 31 30 29 29 32 34 36 36 37 39 39 34 28 23 22 23 22 20 19 19 18 17 15 12
18 19 19 19 19 20 20 20 20 19 19 19 19 19 20 21 23 25 27 29 29 29 29 30 31 31 30 30 29 27 26 27 28 29 31 32 32 32 33 33 31 29 29 30 32 33 32 32 35 35 30 25 23 21 22 22 21 20 19 18 16 13 11

ECMWFFLT1_850_spd_042.txt.gz
Wind_Speed
15 15 15 14 12 11 11 11 10 9 9 8 6 5 4 5 5 4 4 6 7 7 7 7 8 9 9 10 10 10 10 10 10 9 9 9 10 10 11 12 10 6 3 3 5 7 10 15 14 11 12 13 13 13 11 10 9 8 7 7 7 7 7
14 14 15 13 12 11 11 10 9 8 8 7 5 4 3 4 5 5 4 5 6 6 6 6 6 7 8 9 10 10 10 11 11 10 10 10 9 9 10 11 11 9 5 4 5 7 8 13 15 15 17 17 15 13 12 11 11 10 9 9 8 8 8
16 15 13 12 11 11 10 9 8 7 6 4 4 4 4 4 5 6 5 5 5 5 4 4 4 4 5 6 8 9 9 10 11 10 10 10 10 9 10 11 11 11 7 6 8 9 9 10 13 17 19 18 16 15 13 12 11 11 10 9 8 8 7
15 14 13 12 11 11 10 9 7 6 5 4 3 4 4 4 4 6 6 6 5 4 4 4 3 3 3 5 6 7 7 8 9 9 10 10 10 11 11 11 10 10 8 6 7 10 12 11 14 20 20 17 16 15 14 12 10 9 8 7 7 6 5
14 12 12 12 11 11 9 7 6 5 4 3 3 3 3 3 3 4 6 7 6 4 3 4 4 4 4 5 5 5 6 7 7 8 9 9 10 10 10 11 10 9 8 6 6 9 11 10 13 21 22 18 16 14 13 12 11 9 8 7 7 5 5
12 10 10 11 11 10 8 6 5 5 4 4 3 3 2 2 1 2 4 7 6 3 3 3 3 4 5 5 5 6 6 6 7 7 8 8 9 9 9 10 10 9 8 7 7 8 10 10 12 19 22 17 14 14 14 12 10 9 8 7 8 8 7
11 9 10 12 11 10 7 5 4 4 5 5 4 4 4 4 2 0 2 5 5 4 3 3 3 3 4 5 6 6 7 7 8 7 7 8 9 9 9 9 9 9 9 7 7 9 10 11 12 17 20 17 14 13 13 12 10 8 8 8 9 10 10
10 9 10 11 10 9 6 4 3 3 5 5 5 6 6 5 2 1 2 4 4 4 4 3 3 3 4 6 6 6 7 8 8 7 8 9 9 9 9 9 10 10 10 8 7 8 10 11 11 15 17 16 15 15 13 12 10 7 7 9 11 11 11
11 10 10 10 9 8 6 4 2 3 4 4 5 6 7 6 3 1 2 3 3 2 2 2 2 3 5 6 5 5 6 7 7 7 8 9 9 9 9 9 10 11 10 9 7 8 10 11 10 13 14 10 10 16 16 13 11 9 8 10 12 12 12
11 10 10 9 9 9 8 5 3 3 4 4 5 6 7 7 3 1 2 3 3 2 2 2 2 3 5 7 7 6 5 5 6 6 7 8 9 9 8 8 9 11 10 10 9 8 10 11 10 12 12 6 4 11 19 17 13 11 10 11 11 11 11
11 10 9 7 7 9 8 6 3 3 3 3 4 5 6 6 3 0 2 2 2 2 2 1 1 3 5 8 7 6 5 5 5 6 6 7 7 8 8 8 9 11 11 11 10 9 9 10 11 11 10 5 3 6 13 17 15 12 11 11 11 10 9
13 11 9 7 7 8 8 5 3 3 3 2 3 4 5 5 2 1 3 3 2 2 2 1 1 3 5 6 6 5 5 5 5 6 5 5 5 5 6 8 9 11 12 11 11 10 10 11 11 11 10 6 3 4 8 14 15 13 12 11 10 9 9
14 12 9 7 8 9 8 4 3 3 2 1 2 4 4 4 1 2 4 4 3 3 3 2 0 3 4 4 4 4 4 5 5 5 4 3 3 3 3 5 8 11 12 12 11 11 12 12 10 10 10 8 5 6 9 11 11 11 12 10 9 9 9
15 13 10 9 10 10 8 4 3 2 1 0 2 3 3 2 1 3 4 4 3 4 4 2 0 3 3 3 3 4 4 5 4 4 3 2 2 2 1 2 7 10 11 12 12 12 12 12 11 11 11 9 7 7 8 7 7 8 11 11 11 11 9
15 13 11 10 10 10 7 4 3 1 0 1 2 3 2 2 3 4 4 3 3 4 4 2 2 5 4 2 2 3 4 4 4 2 2 2 0 1 2 1 5 8 11 11 12 12 12 12 11 11 10 9 8 8 8 7 6 6 7 9 10 11 10
15 14 12 10 10 10 7 4 2 0 1 2 2 2 2 3 3 4 4 4 4 4 5 3 4 7 6 4 3 2 3 4 3 1 1 2 1 1 2 1 3 7 11 12 12 11 12 12 11 10 9 8 9 9 10 10 9 8 6 6 8 10 10
17 16 13 11 11 10 7 4 2 1 2 2 1 1 2 3 4 4 4 4 4 4 4 3 4 8 8 6 4 3 3 3 3 2 1 2 1 1 1 2 4 8 11 13 12 11 11 11 10 9 9 10 10 11 12 13 13 12 10 8 7 8 10
17 16 14 12 11 9 7 5 3 2 1 1 0 0 2 3 3 3 2 2 2 3 3 2 3 6 8 8 6 5 4 4 4 4 3 3 2 1 2 3 5 9 11 11 11 10 10 9 9 10 11 12 13 13 14 15 15 15 14 12 9 9 11
18 17 14 13 12 10 8 6 4 3 3 2 2 3 5 7 7 7 7 6 3 1 1 2 3 4 6 7 7 7 6 6 7 7 7 6 5 4 3 3 5 7 9 9 9 9 8 8 8 9 10 11 13 15 16 17 17 17 17 16 13 12 13
18 17 16 16 15 12 9 7 5 4 4 5 5 4 6 6 6 7 8 8 7 5 4 2 2 3 5 5 6 6 6 7 9 9 9 9 8 7 7 7 7 7 7 7 7 8 7 8 8 10 10 11 12 14 16 18 19 19 19 18 16 14 14
18 18 17 16 14 12 10 8 6 4 5 7 7 6 5 5 4 5 5 5 5 5 5 4 3 0 3 4 4 4 4 6 9 10 9 8 7 7 9 11 11 10 9 9 9 9 9 9 10 10 10 10 10 11 13 15 17 18 19 19 18 16 15
17 17 15 12 12 14 13 11 9 7 6 7 8 7 5 4 4 3 3 2 2 3 4 4 5 4 2 3 4 4 4 5 7 8 7 7 7 7 9 11 12 12 12 12 12 12 10 10 10 9 9 9 9 9 10 12 14 15 17 19 20 19 18
18 15 13 13 15 16 15 14 14 12 9 9 8 7 6 5 5 4 3 1 1 2 2 3 4 5 5 4 3 3 5 5 6 7 7 7 8 9 9 10 11 12 12 12 12 12 12 11 11 11 11 11 10 10 11 12 13 15 17 19 20 21 20
19 17 15 16 17 17 15 15 15 13 11 11 10 9 8 7 6 5 4 3 2 2 2 2 3 4 5 5 4 3 3 5 6 7 7 7 8 8 9 10 10 12 13 13 13 13 13 13 13 13 14 14 13 14 14 14 15 16 18 19 20 20 21
16 16 16 17 17 17 16 15 16 15 13 12 11 10 9 8 7 7 6 5 5 4 4 4 3 3 4 5 5 5 5 5 6 6 7 8 8 9 10 11 12 13 14 15 15 16 16 16 16 17 17 17 17 17 17 18 18 19 20 20 20 21 21
14 14 15 17 17 17 17 16 16 16 14 14 14 12 11 10 9 9 8 7 7 7 7 6 6 6 6 6 6 7 8 8 8 8 8 8 9 10 11 12 13 14 15 16 17 18 18 19 19 19 20 20 20 20 20 20 20 21 21 21 22 22 22
15 15 15 16 15 16 17 17 16 15 15 15 15 14 13 13 12 12 11 9 8 9 9 9 9 9 9 9 8 9 10 11 12 12 11 11 11 11 11 11 12 13 14 15 16 17 18 19 19 20 20 20 20 21 21 21 21 22 23 24 25 26 25
16 15 14 13 13 13 14 14 14 14 14 15 15 15 14 14 14 13 13 11 10 10 11 11 12 12 12 12 12 12 12 13 14 14 15 15 15 15 15 15 15 15 15 15 16 17 18 19 20 20 21 21 21 21 22 22 22 23 24 25 27 28 28
15 14 12 11 11 10 10 10 10 11 11 12 13 13 14 13 13 12 12 12 12 12 12 12 13 14 15 15 15 16 16 16 16 17 17 17 18 19 19 20 20 20 20 20 20 20 21 22 23 23 23 23 23 23 23 24 24 25 26 27 28 29 30
14 13 11 9 9 8 7 7 7 7 8 8 8 10 11 11 11 11 11 11 11 12 14 15 15 17 17 18 19 19 20 20 21 21 21 21 21 22 21 22 22 23 23 23 24 25 26 28 28 28 28 27 27 27 26 26 27 28 29 30 31 32 31
11 10 8 7 7 5 5 4 4 4 5 5 6 6 7 8 9 10 10 11 11 12 13 14 16 17 19 19 20 21 22 23 24 24 25 26 26 26 26 26 26 26 26 25 25 26 28 29 30 30 30 31 31 31 29 29 30 30 31 32 35 36 33
5 5 4 4 3 1 1 1 2 3 4 5 6 7 7 8 9 10 11 12 13 13 14 14 15 16 18 19 20 21 22 23 23 24 25 27 27 28 28 28 28 28 29 28 27 27 28 28 29 29 30 31 31 30 29 29 31 31 32 33 36 37 34
2 2 2 3 4 5 6 7 7 8 9 9 10 11 12 13 13 14 14 15 16 17 17 18 18 19 19 20 21 22 22 23 24 25 25 26 26 27 27 27 27 27 27 28 27 27 27 27 26 27 28 29 30 28 27 27 28 28 30 31 33 34 33
6 5 6 7 8 10 12 13 13 13 14 14 15 16 17 18 19 19 20 20 21 21 22 23 23 24 25 25 26 26 26 27 28 29 29 29 29 29 28 27 26 26 25 26 26 25 24 24 23 24 25 26 26 26 25 25 24 25 27 29 29 31 32
8 8 8 9 9 11 14 15 16 17 17 18 19 19 20 21 22 22 23 23 24 25 26 27 28 28 29 30 30 31 32 32 33 34 35 35 35 34 33 32 31 29 27 26 26 26 24 23 23 24 24 23 23 24 25 24 23 23 25 27 27 28 29
11 11 11 12 12 12 14 15 16 17 18 20 20 21 22 23 24 24 24 24 24 25 26 27 28 29 30 31 31 33 34 35 35 37 38 39 39 39 39 38 36 34 32 30 29 28 27 26 26 26 25 23 23 24 25 26 25 25 25 25 25 26 28
11 12 12 13 14 14 15 16 17 18 19 20 21 21 22 23 25 26 26 26 26 26 27 27 27 28 29 30 30 31 33 34 35 36 37 38 39 40 40 40 40 39 37 35 33 32 32 31 29 28 25 23 23 24 25 27 27 26 26 26 26 27 28

ECMWFFLT1_850_spd_045.txt.gz
Wind_Speed
19 19 18 17 16 15 14 13 12 10 9 7 6 6 5 5 5 4 4 4 5 6 7 8 8 9 9 9 10 11 11 10 9 8 8 8 9 10 10 9 5 3 4 7 7 8 11 13 11 10 12 12 12 12 11 11 10 9 9 9 9 9 9
18 18 19 18 17 16 14 13 12 10 9 8 7 7 6 6 6 5 4 4 4 4 5 6 7 8 8 9 9 10 10 10 9 9 9 9 9 9 9 10 9 5 3 5 7 8 9 12 13 14 16 15 14 13 12 12 11 10 10 11 11 10 10
20 20 20 19 18 16 15 13 12 11 10 9 8 8 7 7 6 5 5 4 4 3 3 4 5 5 6 7 8 9 9 9 9 9 9 9 10 9 8 10 11 8 6 6 8 10 10 10 13 16 16 14 14 15 14 14 14 13 12 12 11 11 9
22 21 21 20 18 17 15 14 13 12 10 9 9 9 8 7 7 6 5 5 4 4 3 4 5 5 5 6 7 8 8 8 8 9 9 8 9 10 10 10 10 10 10 8 7 9 10 9 13 16 13 12 14 16 15 14 13 13 12 11 10 9 8
21 21 20 19 18 17 15 13 13 11 10 9 9 9 8 7 7 6 6 6 5 4 3 3 4 4 5 5 6 6 7 7 8 8 8 8 9 9 10 10 10 9 10 7 5 8 10 10 12 16 14 12 14 15 14 13 12 11 10 10 8 7 7
20 20 19 18 18 16 14 13 12 11 10 9 9 9 8 8 7 7 7 7 6 5 4 3 3 3 4 4 5 5 5 5 6 7 7 8 9 9 9 9 10 9 8 6 4 6 10 11 12 16 14 12 14 15 14 12 11 10 9 9 8 7 7
18 18 18 18 18 16 14 13 12 11 11 10 10 8 7 7 7 8 9 8 7 6 5 3 2 3 4 5 6 6 6 6 6 6 6 8 9 10 9 9 10 9 8 6 5 6 9 10 13 16 14 12 13 14 12 11 11 9 9 9 9 9 9
16 16 17 17 17 16 14 13 12 12 11 10 10 9 8 7 7 8 10 10 9 7 5 4 3 3 4 5 7 7 7 6 6 5 5 7 8 9 9 10 10 10 9 8 7 7 8 9 12 14 14 14 15 14 11 11 10 8 9 11 10 11 11
15 16 17 16 15 15 13 13 12 11 10 10 9 9 8 7 8 9 10 10 9 7 5 4 3 4 5 6 7 6 6 5 5 5 5 6 7 8 9 10 11 11 11 10 9 9 8 9 10 11 14 13 11 13 13 10 9 8 10 12 11 12 12
15 15 15 15 15 14 13 12 11 11 10 9 8 7 8 8 8 8 9 9 8 7 5 3 3 3 5 6 6 5 4 4 4 5 5 6 6 7 8 9 10 12 12 11 10 10 10 10 10 10 14 10 4 9 14 12 10 10 11 13 12 12 11
15 14 14 14 14 14 13 12 11 10 9 8 7 6 6 7 7 7 8 8 7 7 5 4 3 3 4 6 6 4 3 3 3 4 5 5 5 7 8 9 10 12 13 11 10 11 11 11 10 11 14 10 1 5 12 12 12 12 12 13 12 12 11
15 15 14 13 13 13 12 12 11 9 9 7 6 5 5 6 6 6 6 6 6 7 6 5 4 3 4 5 5 4 3 3 3 3 3 2 3 4 6 7 10 11 13 12 11 12 13 12 11 11 12 9 1 1 8 11 13 14 14 14 12 12 11
16 15 14 12 12 12 11 10 10 9 8 7 5 4 4 5 6 6 5 4 5 7 6 6 5 4 4 5 5 5 4 3 3 3 3 2 1 0 2 5 9 11 13 13 12 13 13 13 12 11 11 8 1 3 8 11 13 14 15 14 12 11 11
16 16 13 12 12 13 12 11 10 8 7 6 4 3 3 4 5 5 4 4 5 7 6 5 6 6 6 6 6 6 6 4 4 4 4 3 3 3 2 3 7 10 12 14 13 13 14 13 12 11 10 7 4 7 11 12 12 13 13 13 12 12 11
16 16 13 13 14 14 13 11 9 8 6 4 3 3 3 4 4 4 3 4 5 6 5 5 6 8 7 8 8 8 7 6 5 5 4 4 4 4 4 2 5 8 11 13 13 13 13 13 12 10 9 8 7 9 11 11 11 10 10 10 10 11 11
17 16 13 14 16 15 13 11 9 7 6 4 3 3 4 3 4 4 3 4 5 5 4 4 6 8 8 8 8 8 8 7 7 6 6 5 5 5 4 2 4 8 11 13 13 13 12 12 10 9 9 9 9 10 10 10 9 8 8 7 8 9 10
18 17 14 16 17 15 13 11 10 8 6 5 4 4 4 4 4 4 4 4 4 4 3 3 6 9 9 8 8 8 9 8 8 7 7 6 5 4 4 3 4 8 11 12 13 13 12 11 10 9 9 9 8 9 9 9 8 8 8 7 7 9 10
20 18 16 17 16 14 13 12 11 9 8 7 6 5 5 5 5 4 4 5 5 4 3 3 5 8 8 8 7 7 8 8 8 8 7 6 5 5 5 4 6 9 11 12 12 12 12 11 9 9 8 7 7 7 8 8 9 10 9 9 9 9 10
21 18 16 17 16 14 13 12 11 10 10 9 9 9 9 9 9 8 7 6 6 5 4 5 6 6 7 7 7 6 6 7 8 8 7 6 5 6 5 5 6 9 11 11 11 11 10 9 8 7 6 6 6 7 8 10 11 12 12 12 12 12 11
17 16 16 17 17 16 14 13 12 12 13 13 13 13 12 11 11 11 11 10 9 8 6 6 6 5 6 6 6 5 5 6 7 8 8 7 5 6 6 6 7 9 10 10 10 9 8 7 6 6 5 6 7 9 10 12 13 14 15 15 15 15 15
18 19 19 19 19 17 16 14 12 13 14 14 14 13 11 11 11 10 11 11 10 9 8 7 6 4 4 4 4 4 4 5 7 8 8 8 6 6 7 8 7 8 9 9 9 9 8 7 5 5 6 7 8 8 10 11 13 15 17 18 18 18 17
21 21 21 21 20 18 16 15 14 14 14 13 13 11 9 8 9 9 9 9 8 7 6 5 6 5 4 4 3 3 3 3 5 7 8 8 6 6 7 9 9 9 9 9 8 8 8 8 7 7 7 7 6 6 7 8 9 10 12 14 17 17 18
21 21 22 23 20 17 16 14 11 10 10 9 8 9 8 7 8 9 9 8 7 6 5 5 5 5 5 5 4 4 4 3 3 6 7 7 6 6 7 8 10 10 10 10 9 9 9 9 9 9 8 8 7 6 6 6 7 8 9 11 13 15 16
18 19 21 20 14 9 9 10 10 11 10 10 10 10 10 8 8 8 8 7 6 5 5 4 4 4 4 5 5 5 5 5 4 5 6 5 5 6 6 7 8 9 10 10 10 10 10 10 10 10 9 9 9 8 8 8 9 9 10 12 13 15 16
15 14 15 14 11 9 10 11 11 11 10 11 11 11 11 10 8 8 8 7 6 5 5 4 4 4 3 4 4 5 5 6 6 6 6 6 5 6 6 7 7 8 9 9 10 10 11 11 11 11 11 11 11 12 12 12 12 13 13 14 16 17 18
14 14 13 13 12 12 13 12 12 12 12 11 11 11 11 10 9 8 8 7 7 6 6 5 5 4 3 3 3 4 4 5 6 6 6 7 7 7 7 8 8 9 9 9 10 11 11 12 13 13 13 13 13 14 14 15 15 15 16 17 18 19 19
11 13 13 13 13 14 14 14 13 13 12 11 10 10 10 9 9 8 8 8 7 7 7 7 6 6 5 5 5 5 5 5 6 7 7 7 8 8 8 9 9 10 10 10 11 11 12 12 13 13 14 14 14 14 14 15 15 15 15 17 18 19 19
10 10 10 9 9 11 12 12 12 12 11 10 10 10 9 9 8 8 8 8 8 8 8 8 7 7 7 7 7 7 7 8 8 8 9 10 10 11 11 11 12 12 12 12 13 13 14 15 15 15 15 15 15 15 15 15 15 15 15 16 17 18 18
11 10 8 7 7 7 8 8 9 9 9 8 8 8 8 7 7 7 8 8 8 9 9 9 9 9 9 9 9 9 10 10 10 11 12 12 13 13 13 14 14 15 15 15 15 16 17 18 18 18 19 18 19 18 18 18 18 18 18 18 19 19 20
14 13 11 9 8 8 7 7 6 7 6 6 5 5 6 6 6 7 7 8 9 10 10 11 11 11 12 12 12 13 13 14 14 14 15 15 16 16 16 17 17 18 18 18 19 20 20 21 21 21 22 22 22 22 22 22 22 22 22 22 23 22 22
15 14 13 12 11 9 8 7 7 6 5 4 4 4 4 4 5 6 6 7 8 9 10 11 11 12 12 12 13 14 14 15 16 16 17 17 18 18 19 19 20 20 21 21 22 23 23 24 24 24 24 24 25 25 25 25 26 26 26 26 25 25 25
12 11 10 10 10 8 7 7 6 5 4 4 3 3 3 4 4 5 6 7 8 9 10 11 12 12 13 13 13 14 14 15 16 17 17 18 18 18 19 20 20 21 22 22 23 24 24 25 25 26 26 27 27 28 27 27 27 26 26 26 26 25 26
7 7 6 5 4 4 3 1 1 1 2 3 4 5 5 6 7 8 9 10 11 12 13 14 15 15 16 17 17 17 18 19 19 20 20 20 21 21 20 21 21 21 22 23 23 24 25 25 25 26 27 28 29 29 28 27 27 26 25 26 26 25 25
4 3 2 1 1 1 2 4 5 5 6 6 7 7 8 9 10 11 12 13 14 15 16 16 17 18 19 20 21 21 23 23 24 25 25 25 25 26 25 25 25 24 24 24 24 25 25 26 26 27 28 28 28 28 28 28 28 26 26 25 25 25 25
5 4 4 3 4 4 5 6 8 8 9 10 10 10 10 11 11 12 13 14 15 16 17 18 19 20 21 22 22 23 24 25 27 27 28 28 28 28 29 29 28 28 28 28 27 27 28 28 29 29 29 28 28 28 28 27 26 26 25 25 25 25 24
3 3 3 4 4 5 6 7 8 9 10 11 12 12 13 13 13 14 14 15 16 17 18 19 20 22 23 24 25 25 25 26 27 28 29 29 30 30 31 31 31 31 31 30 30 29 29 30 31 31 30 29 29 30 30 29 28 27 26 26 26 25 25
3 3 4 4 5 5 6 7 8 9 10 11 12 13 14 14 14 15 15 16 16 17 18 18 19 21 22 23 24 26 26 27 27 28 29 30 30 31 32 32 33 33 33 33 33 32 31 30 31 31 30 30 31 31 32 31 30 28 27 27 27 26 26

ECMWFFLT1_850_spd_048.txt.gz
Wind_Speed
19 17 16 15 15 14 14 13 11 11 10 10 10 9 9 9 9 8 8 8 8 8 8 8 8 9 9 10 12 13 12 11 9 8 8 9 9 8 9 8 4 4 7 7 7 8 8 9 9 8 8 8 7 6 6 6 6 7 10 11 9 9 8
18 16 16 16 16 15 14 13 12 12 12 11 10 10 9 9 9 9 8 8 8 8 8 8 8 9 10 11 12 13 13 12 10 9 8 9 9 8 8 8 6 6 8 7 7 8 8 9 9 10 10 9 7 7 8 8 7 8 11 12 11 11 10
19 18 17 17 16 15 15 14 13 12 12 10 8 8 8 8 8 9 8 9 8 8 8 8 8 9 10 11 12 11 12 13 10 9 9 9 9 8 7 8 9 9 8 8 9 9 8 8 9 10 11 10 8 7 7 7 8 10 12 12 12 11 10
19 19 19 20 19 18 17 16 14 13 11 10 9 9 8 8 9 9 9 9 9 9 9 8 8 9 10 11 12 12 12 11 10 9 9 9 10 9 8 9 10 10 9 9 10 10 9 10 11 12 11 10 9 7 7 9 10 11 11 11 11 10 9
20 21 21 22 21 20 19 17 15 13 12 11 10 9 9 9 9 9 9 9 9 9 9 8 8 8 9 10 11 12 11 10 10 10 10 9 10 9 8 10 10 10 11 8 8 10 9 9 13 13 11 11 10 9 11 13 12 10 10 10 9 8 8
20 21 21 20 20 19 18 18 16 14 13 12 11 10 10 9 9 9 9 9 9 9 9 9 9 8 8 9 10 11 10 9 10 10 10 10 10 9 9 10 9 9 10 9 9 11 9 9 13 14 12 12 11 11 12 12 11 10 9 8 8 7 7
21 20 20 20 20 18 17 17 15 13 12 12 12 11 11 11 10 9 9 9 9 9 10 10 10 9 8 8 9 9 9 9 10 11 10 9 10 10 10 10 9 8 8 9 9 10 9 10 13 13 12 12 11 11 11 10 10 10 9 8 8 8 8
22 21 21 22 21 19 17 17 15 13 12 12 11 11 12 11 11 10 9 9 9 9 9 9 10 10 9 9 8 9 9 9 9 10 10 9 9 10 10 10 9 8 7 7 8 9 9 9 10 12 12 13 12 11 10 10 10 9 9 9 8 8 10
24 23 23 24 23 20 18 16 14 13 12 12 12 12 12 11 11 11 9 9 9 9 9 9 9 10 10 9 9 9 9 8 8 9 8 8 8 9 9 9 8 7 8 8 8 8 8 8 9 10 12 12 12 11 11 10 9 8 10 10 9 9 10
23 23 24 25 24 21 19 16 15 14 13 12 12 12 12 12 12 11 10 9 9 9 10 10 9 9 9 9 9 9 8 7 8 8 8 7 7 8 9 9 9 8 9 9 9 9 9 10 11 12 13 12 10 10 11 10 9 9 10 10 10 11 11
20 21 24 25 23 21 19 17 15 14 13 12 12 12 12 12 11 10 10 10 10 10 10 10 10 10 9 9 8 9 8 7 7 7 7 7 7 8 8 10 10 8 9 10 10 10 10 11 11 11 13 11 7 7 10 10 9 10 11 11 10 11 13
20 21 23 23 22 21 19 17 16 14 13 12 11 11 12 12 11 9 9 10 10 9 8 9 9 9 9 9 8 8 8 8 8 7 8 8 8 8 8 10 10 9 10 11 10 11 11 11 10 8 10 9 4 6 9 9 10 10 11 11 10 12 13
21 23 24 22 21 21 19 17 16 14 13 12 11 11 12 12 11 10 9 10 9 7 7 8 8 9 10 9 8 8 8 8 8 8 8 8 7 7 7 9 10 9 11 11 10 12 13 13 11 9 10 8 4 6 8 8 11 12 11 11 11 12 12
23 23 22 21 20 20 19 17 16 14 13 12 10 10 11 11 11 10 10 10 9 8 7 7 8 8 9 10 9 8 8 7 7 6 7 7 6 7 6 8 10 10 11 10 10 13 15 15 12 10 11 9 6 7 8 8 12 14 12 11 11 11 12
22 22 20 19 19 19 18 16 15 14 13 11 10 11 11 12 11 10 10 10 10 9 7 7 8 8 8 9 10 9 8 8 8 7 8 7 6 6 6 7 9 10 11 12 12 14 16 14 12 11 12 10 8 9 9 9 12 14 13 12 12 11 12
21 22 20 18 19 19 16 15 14 14 13 11 11 11 11 11 11 10 10 11 11 9 7 7 8 8 8 8 9 10 10 9 10 9 8 7 6 6 7 7 9 11 13 13 15 16 15 14 13 12 12 11 9 10 9 9 10 12 12 12 11 11 11
22 23 20 18 19 18 16 15 15 14 13 12 11 11 11 11 11 11 11 11 10 9 7 7 8 8 8 8 8 9 10 10 10 9 9 8 6 6 7 8 9 11 13 13 15 16 16 14 13 12 12 11 10 10 10 9 9 9 10 11 11 10 11
26 26 22 19 19 18 16 16 16 15 13 13 12 12 11 11 10 11 11 10 9 8 7 7 8 9 9 9 9 9 9 9 9 9 9 9 8 6 7 8 10 12 13 13 15 16 15 15 14 12 12 12 10 11 11 10 9 8 8 9 10 10 10
27 26 23 22 22 19 17 17 17 15 14 13 13 12 11 11 10 10 10 10 9 8 7 7 7 8 9 9 9 9 10 10 10 9 9 8 8 8 7 8 12 14 14 13 15 15 15 14 13 12 11 11 10 11 11 11 10 9 8 9 9 10 11
26 25 24 24 23 20 18 18 17 16 15 15 14 13 12 11 11 10 10 9 8 8 7 7 6 7 7 8 8 8 10 10 10 10 9 8 8 9 8 9 12 14 14 13 13 14 15 15 14 13 12 11 10 11 11 11 11 10 10 10 10 11 12
25 24 24 26 24 22 21 19 17 16 16 16 16 16 14 13 12 11 10 10 9 8 7 6 6 6 6 6 7 7 8 8 8 9 9 8 9 10 9 9 11 13 15 14 14 14 15 15 15 14 12 11 11 11 10 10 11 11 12 11 11 11 11
25 25 26 27 26 24 23 20 19 19 18 18 17 16 14 12 11 11 11 11 11 11 10 9 9 9 8 7 6 5 6 7 7 8 8 8 9 9 9 9 11 12 13 14 14 14 13 13 13 12 10 10 10 10 10 10 10 10 11 12 12 12 12
26 25 27 28 27 26 23 21 21 20 19 18 17 16 13 11 10 9 10 11 12 11 10 9 9 9 9 8 7 5 5 6 7 7 7 7 8 8 9 10 11 12 12 13 13 13 12 11 11 11 10 10 10 10 9 9 9 9 10 10 11 11 12
23 24 27 29 28 25 23 22 22 21 20 18 17 15 14 12 11 11 11 11 10 9 9 8 8 7 7 7 7 6 5 6 7 8 7 6 6 7 8 9 11 12 12 12 13 13 13 12 12 12 12 12 12 12 10 9 8 8 9 9 10 10 12
25 26 29 29 27 24 23 23 21 19 17 16 14 13 14 14 13 13 12 10 9 9 8 8 7 7 6 6 6 6 5 5 6 7 7 6 6 6 7 7 9 12 13 13 14 14 14 14 14 13 13 13 14 14 12 11 9 9 9 9 10 11 12
24 24 24 23 21 18 16 15 13 11 12 13 13 14 16 15 13 12 12 10 9 9 8 8 7 7 6 6 6 6 5 5 5 6 6 7 7 7 7 7 8 10 13 14 14 13 12 13 14 14 14 14 15 14 14 13 12 12 12 12 12 13 13
19 18 17 15 13 11 11 12 12 12 11 12 13 15 15 14 12 11 11 10 9 8 8 7 7 6 6 5 5 5 5 5 6 6 6 7 8 8 8 8 7 8 10 12 12 12 11 11 12 14 14 15 15 15 15 15 15 15 16 16 16 16 15
15 16 16 15 13 12 12 13 15 15 15 15 14 14 13 12 11 11 10 10 9 8 7 7 6 6 6 5 5 5 6 6 7 7 7 8 8 8 9 9 8 8 9 10 11 12 12 12 13 14 14 15 15 15 16 18 19 18 18 19 18 18 17
13 14 14 14 13 12 14 15 16 15 14 13 12 12 11 10 10 10 10 9 9 8 8 7 7 7 7 6 6 7 7 7 8 9 9 9 9 10 10 11 11 11 11 12 14 14 14 15 15 16 17 17 17 17 18 21 22 21 20 20 20 20 20
14 14 13 13 12 12 13 14 14 13 12 11 11 11 12 11 10 10 10 10 10 9 8 8 8 8 8 8 8 9 8 9 10 11 12 12 12 13 14 14 14 14 14 16 18 17 17 18 18 19 20 20 21 21 21 23 25 23 22 23 23 23 24
16 15 14 14 14 13 12 12 12 11 9 8 7 8 8 8 8 8 8 8 8 7 7 7 8 8 8 8 9 9 9 9 11 12 12 13 13 14 15 16 16 16 18 20 20 20 20 21 21 22 23 24 24 24 23 25 27 27 26 27 28 28 28
17 16 15 15 14 14 13 12 11 10 9 8 6 5 5 4 4 4 4 4 5 5 6 7 7 8 8 9 9 10 10 10 12 12 12 13 13 13 15 16 17 17 18 20 21 21 21 22 22 23 23 24 25 26 25 24 26 28 29 29 30 31 31
15 14 13 13 12 12 11 10 9 8 8 7 6 5 5 4 4 4 5 5 6 7 8 9 9 10 11 12 12 13 14 14 16 16 16 16 17 17 17 18 19 21 21 21 22 23 23 23 23 23 23 24 24 25 25 23 23 26 28 28 28 30 31
11 10 9 9 9 8 7 6 5 5 4 4 4 3 3 4 4 5 6 7 8 9 10 11 12 12 13 14 15 16 17 18 18 19 20 20 20 21 20 19 22 26 26 24 26 27 27 27 27 27 27 27 26 26 26 25 25 26 27 28 29 30 31
7 6 6 5 4 4 4 3 2 2 1 1 2 2 3 4 5 6 7 8 9 10 11 12 13 13 14 15 16 17 18 19 19 19 21 21 21 23 23 23 26 29 29 27 28 30 30 31 32 32 32 31 30 30 30 30 30 28 27 28 28 28 29
4 3 3 3 2 2 2 2 1 1 2 2 3 3 4 5 5 6 7 8 9 10 11 12 13 14 15 16 16 17 18 19 19 20 21 22 22 23 24 26 29 29 28 28 29 30 30 32 33 34 34 33 33 32 32 33 34 33 31 28 26 25 24
4 3 3 2 1 1 0 0 0 0 1 1 2 3 4 5 5 6 7 8 8 9 11 12 14 14 15 16 17 17 18 20 20 20 21 21 22 23 25 27 28 28 27 28 28 28 29 29 30 31 32 33 33 33 34 35 35 35 35 33 30 28 25